WBANNO,USDM_WEEK,LONGITUDE,LATITUDE,SMVWC_5_CM_MEAN,SMANOM_5_CM_MEAN,SMPERC_5_CM_30COUNTS,SMPERC_5_CM_70COUNTS,SMVWC_10_CM_MEAN,SMANOM_10_CM_MEAN,SMPERC_10_CM_30COUNTS,SMPERC_10_CM_70COUNTS,SMVWC_20_CM_MEAN,SMANOM_20_CM_MEAN,SMPERC_20_CM_30COUNTS,SMPERC_20_CM_70COUNTS,SMVWC_50_CM_MEAN,SMANOM_50_CM_MEAN,SMPERC_50_CM_30COUNTS,SMPERC_50_CM_70COUNTS,SMVWC_100_CM_MEAN,SMANOM_100_CM_MEAN,SMPERC_100_CM_30COUNTS,SMPERC_100_CM_70COUNTS,SMVWC_TOP_CM_MEAN,SMANOM_TOP_CM_MEAN,SMPERC_TOP_CM_30COUNTS,SMPERC_TOP_CM_70COUNTS,SMVWC_COLUMN_CM_MEAN,SMANOM_COLUMN_CM_MEAN,SMPERC_COLUMN_CM_30COUNTS,SMPERC_COLUMN_CM_70COUNTS
54794,20100605,-70.93,43.17,,,,,,,,,,,,,,,,,,,,,,,,,,,,
54794,20100606,-70.93,43.17,,,,,,,,,,,,,,,,,,,,,,,,,,,,
54794,20100607,-70.93,43.17,,,,,,,,,,,,,,,,,,,,,,,,,,,,
54794,20100608,-70.93,43.17,,,,,,,,,,,,,,,,,,,,,,,,,,,,
54794,20100609,-70.93,43.17,,,,,,,,,,,,,,,,,,,,,,,,,,,,
54794,20100610,-70.93,43.17,0.251,0.48,0,0.787,0.183,0.43,0,0.662,,,,,,,,,,,,,0.217,0.44,0,0.669,,,,
54794,20100611,-70.93,43.17,0.257,0.52,0,0.819,0.189,0.49,0,0.713,,,,,,,,,,,,,0.223,0.5,0,0.719,,,,
54794,20100612,-70.93,43.17,0.269,0.61,0,0.917,0.202,0.61,0,0.821,,,,,,,,,,,,,0.235,0.6,0,0.827,,,,
54794,20100613,-70.93,43.17,0.277,0.66,0,0.988,0.213,0.71,0,0.964,,,,,,,,,,,,,0.245,0.68,0,0.97,,,,
54794,20100614,-70.93,43.17,0.274,0.64,0,1,0.211,0.7,0,1,,,,,,,,,,,,,0.243,0.66,0,1,,,,
54794,20100615,-70.93,43.17,0.273,0.63,0,1,0.21,0.69,0,1,,,,,,,,,,,,,0.241,0.66,0,1,,,,
54794,20100616,-70.93,43.17,0.273,0.63,0,1,0.209,0.69,0,1,,,,,,,,,,,,,0.241,0.66,0,1,,,,
54794,20100617,-70.93,43.17,0.273,0.63,0,1,0.209,0.68,0,1,,,,,,,,,,,,,0.241,0.66,0,1,,,,
54794,20100618,-70.93,43.17,0.266,0.59,0,1,0.203,0.62,0,0.976,,,,,,,,,,,,,0.234,0.61,0,1,,,,
54794,20100619,-70.93,43.17,0.259,0.55,0,1,0.195,0.56,0,0.905,,,,,,,,,,,,,0.227,0.55,0,1,,,,
54794,20100620,-70.93,43.17,0.252,0.51,0,0.964,0.188,0.49,0,0.762,,,,,,,,,,,,,0.22,0.5,0,0.887,,,,
54794,20100621,-70.93,43.17,0.243,0.46,0,0.827,0.18,0.41,0,0.619,,,,,,,,,,,,,0.212,0.44,0,0.744,,,,
54794,20100622,-70.93,43.17,0.235,0.41,0,0.685,0.171,0.34,0,0.476,,,,,,,,,,,,,0.203,0.37,0,0.601,,,,
54794,20100623,-70.93,43.17,0.227,0.37,0,0.56,0.164,0.26,0,0.333,,,,,,,,,,,,,0.195,0.32,0,0.458,,,,
54794,20100624,-70.93,43.17,0.223,0.36,0,0.47,0.158,0.22,0,0.19,,,,,,,,,,,,,0.19,0.29,0,0.315,,,,
54794,20100625,-70.93,43.17,0.22,0.35,0,0.435,0.154,0.19,0,0.071,,,,,,,,,,,,,0.187,0.28,0,0.274,,,,
54794,20100626,-70.93,43.17,0.217,0.34,0,0.387,0.15,0.16,0,0,,,,,,,,,,,,,0.184,0.27,0,0.196,,,,
54794,20100627,-70.93,43.17,0.214,0.33,0,0.28,0.147,0.14,0,0,,,,,,,,,,,,,0.18,0.26,0,0.167,,,,
54794,20100628,-70.93,43.17,0.211,0.32,0,0.274,0.144,0.13,0,0,,,,,,,,,,,,,0.178,0.25,0,0.167,,,,
54794,20100629,-70.93,43.17,0.21,0.33,0,0.274,0.143,0.13,0,0,,,,,,,,,,,,,0.176,0.26,0,0.167,,,,
54794,20100630,-70.93,43.17,0.208,0.32,0,0.256,0.142,0.12,0,0,,,,,,,,,,,,,0.175,0.25,0,0.167,,,,
54794,20100701,-70.93,43.17,0.2,0.27,0,0.202,0.139,0.1,0,0,,,,,,,,,,,,,0.169,0.21,0,0.167,,,,
54794,20100702,-70.93,43.17,0.187,0.18,0,0.095,0.133,0.05,0,0,,,,,,,,,,,,,0.16,0.13,0,0.065,,,,
54794,20100703,-70.93,43.17,0.179,0.12,0,0,0.127,-0.01,0,0,,,,,,,,,,,,,0.153,0.07,0,0,,,,
54794,20100704,-70.93,43.17,0.174,0.09,0,0,0.121,-0.08,0.048,0,,,,,,,,,,,,,0.147,0.02,0,0,,,,
54794,20100705,-70.93,43.17,0.167,0.04,0,0,0.114,-0.15,0.19,0,,,,,,,,,,,,,0.141,-0.04,0,0,,,,
54794,20100706,-70.93,43.17,0.159,-0.02,0,0,0.106,-0.25,0.333,0,,,,,,,,,,,,,0.132,-0.11,0.036,0,,,,
54794,20100707,-70.93,43.17,0.147,-0.12,0.101,0,0.095,-0.39,0.476,0,,,,,,,,,,,,,0.121,-0.23,0.179,0,,,,
54794,20100708,-70.93,43.17,0.136,-0.22,0.244,0,0.091,-0.44,0.536,0,,,,,,,,,,,,,0.113,-0.31,0.321,0,,,,
54794,20100709,-70.93,43.17,0.128,-0.29,0.387,0,0.09,-0.44,0.536,0,,,,,,,,,,,,,0.109,-0.35,0.464,0,,,,
54794,20100710,-70.93,43.17,0.115,-0.41,0.53,0,0.083,-0.51,0.643,0,,,,,,,,,,,,,0.099,-0.45,0.607,0,,,,
54794,20100711,-70.93,43.17,0.108,-0.47,0.565,0,0.082,-0.52,0.696,0,,,,,,,,,,,,,0.095,-0.49,0.72,0,,,,
54794,20100712,-70.93,43.17,0.103,-0.51,0.673,0,0.081,-0.52,0.69,0,,,,,,,,,,,,,0.092,-0.51,0.827,0,,,,
54794,20100713,-70.93,43.17,0.099,-0.55,0.774,0,0.081,-0.5,0.69,0,,,,,,,,,,,,,0.09,-0.52,0.893,0,,,,
54794,20100714,-70.93,43.17,0.106,-0.48,0.78,0.036,0.088,-0.38,0.655,0.03,,,,,,,,,,,,,0.097,-0.44,0.857,0.036,,,,
54794,20100715,-70.93,43.17,0.128,-0.25,0.637,0.179,0.102,-0.18,0.595,0.173,,,,,,,,,,,,,0.115,-0.21,0.714,0.179,,,,
54794,20100716,-70.93,43.17,0.148,-0.04,0.494,0.321,0.11,-0.06,0.595,0.315,,,,,,,,,,,,,0.129,-0.03,0.571,0.321,,,,
54794,20100717,-70.93,43.17,0.167,0.17,0.351,0.464,0.122,0.13,0.488,0.458,,,,,,,,,,,,,0.144,0.17,0.429,0.464,,,,
54794,20100718,-70.93,43.17,0.179,0.3,0.315,0.607,0.129,0.25,0.387,0.601,,,,,,,,,,,,,0.154,0.3,0.315,0.607,,,,
54794,20100719,-70.93,43.17,0.187,0.41,0.208,0.732,0.135,0.35,0.25,0.619,,,,,,,,,,,,,0.161,0.41,0.208,0.702,,,,
54794,20100720,-70.93,43.17,0.194,0.51,0.108,0.737,0.14,0.44,0.108,0.623,,,,,,,,,,,,,0.167,0.5,0.108,0.707,,,,
54794,20100721,-70.93,43.17,0.196,0.54,0,0.701,0.141,0.47,0,0.593,,,,,,,,,,,,,0.168,0.54,0,0.671,,,,
54794,20100722,-70.93,43.17,0.181,0.41,0,0.557,0.131,0.35,0,0.449,,,,,,,,,,,,,0.156,0.41,0,0.527,,,,
54794,20100723,-70.93,43.17,0.175,0.37,0,0.503,0.124,0.27,0,0.305,,,,,,,,,,,,,0.149,0.34,0,0.473,,,,
54794,20100724,-70.93,43.17,0.173,0.35,0,0.503,0.118,0.21,0,0.162,,,,,,,,,,,,,0.145,0.31,0,0.473,,,,
54794,20100725,-70.93,43.17,0.171,0.35,0,0.503,0.113,0.15,0,0.018,,,,,,,,,,,,,0.142,0.28,0,0.467,,,,
54794,20100726,-70.93,43.17,0.171,0.36,0,0.521,0.109,0.12,0,0,,,,,,,,,,,,,0.14,0.27,0,0.449,,,,
54794,20100727,-70.93,43.17,0.171,0.36,0,0.583,0.105,0.09,0,0,,,,,,,,,,,,,0.138,0.26,0,0.446,,,,
54794,20100728,-70.93,43.17,0.171,0.37,0,0.583,0.102,0.06,0,0,,,,,,,,,,,,,0.136,0.25,0,0.446,,,,
54794,20100729,-70.93,43.17,0.165,0.32,0,0.583,0.097,0.02,0,0,,,,,,,,,,,,,0.131,0.21,0,0.446,,,,
54794,20100730,-70.93,43.17,0.155,0.22,0.006,0.494,0.089,-0.06,0.06,0,,,,,,,,,,,,,0.122,0.11,0.018,0.357,,,,
54794,20100731,-70.93,43.17,0.141,0.09,0.054,0.351,0.08,-0.15,0.19,0,,,,,,,,,,,,,0.111,-0.01,0.101,0.214,,,,
54794,20100801,-70.93,43.17,0.13,-0.02,0.083,0.208,0.076,-0.19,0.25,0,,,,,,,,,,,,,0.103,-0.09,0.113,0.077,,,,
54794,20100802,-70.93,43.17,0.119,-0.12,0.131,0.065,0.074,-0.19,0.25,0,,,,,,,,,,,,,0.097,-0.15,0.113,0,,,,
54794,20100803,-70.93,43.17,0.11,-0.21,0.161,0,0.07,-0.22,0.274,0,,,,,,,,,,,,,0.09,-0.22,0.113,0,,,,
54794,20100804,-70.93,43.17,0.102,-0.28,0.161,0,0.064,-0.27,0.387,0,,,,,,,,,,,,,0.083,-0.28,0.113,0,,,,
54794,20100805,-70.93,43.17,0.103,-0.27,0.161,0,0.061,-0.3,0.476,0,,,,,,,,,,,,,0.082,-0.28,0.113,0,,,,
54794,20100806,-70.93,43.17,0.107,-0.22,0.155,0,0.063,-0.25,0.417,0,,,,,,,,,,,,,0.085,-0.24,0.095,0,,,,
54794,20100807,-70.93,43.17,0.111,-0.19,0.107,0,0.067,-0.19,0.286,0,,,,,,,,,,,,,0.089,-0.19,0.012,0,,,,
54794,20100808,-70.93,43.17,0.109,-0.21,0.113,0,0.065,-0.21,0.226,0,,,,,,,,,,,,,0.087,-0.21,0.006,0,,,,
54794,20100809,-70.93,43.17,0.107,-0.23,0.179,0,0.059,-0.28,0.333,0,,,,,,,,,,,,,0.083,-0.26,0.143,0,,,,
54794,20100810,-70.93,43.17,0.109,-0.23,0.232,0,0.059,-0.29,0.369,0,,,,,,,,,,,,,0.084,-0.25,0.226,0,,,,
54794,20100811,-70.93,43.17,0.113,-0.2,0.232,0,0.064,-0.23,0.256,0,,,,,,,,,,,,,0.089,-0.21,0.226,0,,,,
54794,20100812,-70.93,43.17,0.115,-0.19,0.232,0,0.068,-0.19,0.167,0,,,,,,,,,,,,,0.091,-0.19,0.226,0,,,,
54794,20100813,-70.93,43.17,0.114,-0.2,0.232,0,0.066,-0.21,0.167,0,,,,,,,,,,,,,0.09,-0.21,0.226,0,,,,
54794,20100814,-70.93,43.17,0.114,-0.21,0.232,0,0.063,-0.25,0.214,0,,,,,,,,,,,,,0.088,-0.23,0.226,0,,,,
54794,20100815,-70.93,43.17,0.118,-0.18,0.196,0,0.06,-0.27,0.31,0,,,,,,,,,,,,,0.089,-0.22,0.226,0,,,,
54794,20100816,-70.93,43.17,0.12,-0.16,0.107,0,0.064,-0.22,0.202,0,,,,,,,,,,,,,0.092,-0.19,0.089,0,,,,
54794,20100817,-70.93,43.17,0.117,-0.18,0.042,0,0.066,-0.21,0.143,0,,,,,,,,,,,,,0.091,-0.2,0.006,0,,,,
54794,20100818,-70.93,43.17,0.11,-0.24,0.149,0,0.064,-0.23,0.143,0,,,,,,,,,,,,,0.087,-0.24,0.006,0,,,,
54794,20100819,-70.93,43.17,0.106,-0.27,0.19,0,0.06,-0.26,0.208,0,,,,,,,,,,,,,0.083,-0.28,0.083,0,,,,
54794,20100820,-70.93,43.17,0.101,-0.32,0.202,0,0.057,-0.3,0.321,0,,,,,,,,,,,,,0.079,-0.32,0.196,0,,,,
54794,20100821,-70.93,43.17,0.095,-0.37,0.327,0,0.055,-0.33,0.381,0,,,,,,,,,,,,,0.075,-0.36,0.321,0,,,,
54794,20100822,-70.93,43.17,0.09,-0.43,0.47,0,0.054,-0.34,0.423,0,,,,,,,,,,,,,0.072,-0.41,0.458,0,,,,
54794,20100823,-70.93,43.17,0.087,-0.46,0.548,0,0.048,-0.41,0.565,0,,,,,,,,,,,,,0.068,-0.46,0.601,0,,,,
54794,20100824,-70.93,43.17,0.089,-0.45,0.554,0,0.042,-0.48,0.708,0,,,,,,,,,,,,,0.065,-0.49,0.744,0,,,,
54794,20100825,-70.93,43.17,0.092,-0.43,0.524,0.006,0.037,-0.53,0.827,0,,,,,,,,,,,,,0.065,-0.5,0.851,0,,,,
54794,20100826,-70.93,43.17,0.118,-0.2,0.482,0.149,0.055,-0.37,0.762,0.137,,,,,,,,,,,,,0.086,-0.29,0.774,0.143,,,,
54794,20100827,-70.93,43.17,0.135,-0.04,0.47,0.292,0.071,-0.21,0.649,0.28,,,,,,,,,,,,,0.103,-0.12,0.661,0.286,,,,
54794,20100828,-70.93,43.17,0.151,0.11,0.345,0.435,0.085,-0.08,0.542,0.357,,,,,,,,,,,,,0.118,0.02,0.536,0.429,,,,
54794,20100829,-70.93,43.17,0.167,0.25,0.202,0.542,0.098,0.04,0.405,0.357,,,,,,,,,,,,,0.132,0.16,0.393,0.44,,,,
54794,20100830,-70.93,43.17,0.18,0.37,0.101,0.542,0.11,0.16,0.262,0.357,,,,,,,,,,,,,0.145,0.29,0.25,0.44,,,,
54794,20100831,-70.93,43.17,0.189,0.45,0.077,0.542,0.121,0.26,0.119,0.357,,,,,,,,,,,,,0.155,0.39,0.107,0.44,,,,
54794,20100901,-70.93,43.17,0.194,0.51,0,0.536,0.13,0.34,0,0.357,,,,,,,,,,,,,0.162,0.46,0,0.44,,,,
54794,20100902,-70.93,43.17,0.175,0.33,0,0.393,0.118,0.22,0,0.22,,,,,,,,,,,,,0.147,0.3,0,0.298,,,,
54794,20100903,-70.93,43.17,0.162,0.2,0,0.25,0.109,0.13,0,0.077,,,,,,,,,,,,,0.136,0.19,0,0.155,,,,
54794,20100904,-70.93,43.17,0.15,0.08,0,0.107,0.102,0.06,0,0,,,,,,,,,,,,,0.126,0.09,0,0.012,,,,
54794,20100905,-70.93,43.17,0.144,0.03,0,0,0.096,0,0,0,,,,,,,,,,,,,0.12,0.04,0,0,,,,
54794,20100906,-70.93,43.17,0.14,0,0,0,0.09,-0.05,0,0,,,,,,,,,,,,,0.115,-0.01,0,0,,,,
54794,20100907,-70.93,43.17,0.137,-0.03,0,0,0.085,-0.1,0,0,,,,,,,,,,,,,0.111,-0.05,0,0,,,,
54794,20100908,-70.93,43.17,0.135,-0.04,0,0,0.08,-0.14,0,0,,,,,,,,,,,,,0.108,-0.08,0,0,,,,
54794,20100909,-70.93,43.17,0.133,-0.06,0,0,0.077,-0.16,0,0,,,,,,,,,,,,,0.105,-0.1,0,0,,,,
54794,20100910,-70.93,43.17,0.136,-0.02,0,0,0.074,-0.19,0,0,,,,,,,,,,,,,0.105,-0.1,0,0,,,,
54794,20100911,-70.93,43.17,0.139,0.02,0,0,0.07,-0.22,0,0,,,,,,,,,,,,,0.105,-0.1,0,0,,,,
54794,20100912,-70.93,43.17,0.137,0.01,0,0,0.067,-0.26,0,0,,,,,,,,,,,,,0.102,-0.12,0,0,,,,
54794,20100913,-70.93,43.17,0.134,-0.01,0,0,0.062,-0.29,0,0,,,,,,,,,,,,,0.098,-0.14,0,0,,,,
54794,20100914,-70.93,43.17,0.132,-0.02,0,0,0.059,-0.31,0,0,,,,,,,,,,,,,0.096,-0.15,0,0,,,,
54794,20100915,-70.93,43.17,0.131,-0.03,0,0,0.06,-0.31,0,0,,,,,,,,,,,,,0.096,-0.14,0,0,,,,
54794,20100916,-70.93,43.17,0.13,-0.04,0,0,0.06,-0.31,0,0,,,,,,,,,,,,,0.095,-0.15,0,0,,,,
54794,20100917,-70.93,43.17,0.128,-0.06,0,0.036,0.061,-0.29,0,0,,,,,,,,,,,,,0.095,-0.14,0,0.024,,,,
54794,20100918,-70.93,43.17,0.137,0.01,0,0.161,0.069,-0.23,0,0,,,,,,,,,,,,,0.103,-0.08,0,0.054,,,,
54794,20100919,-70.93,43.17,0.144,0.06,0,0.161,0.076,-0.18,0,0,,,,,,,,,,,,,0.11,-0.02,0,0.054,,,,
54794,20100920,-70.93,43.17,0.149,0.1,0,0.161,0.083,-0.13,0,0,,,,,,,,,,,,,0.116,0.02,0,0.054,,,,
54794,20100921,-70.93,43.17,0.153,0.11,0,0.161,0.089,-0.09,0,0,,,,,,,,,,,,,0.121,0.05,0,0.054,,,,
54794,20100922,-70.93,43.17,0.154,0.1,0,0.161,0.091,-0.08,0,0,,,,,,,,,,,,,0.123,0.04,0,0.054,,,,
54794,20100923,-70.93,43.17,0.156,0.1,0,0.161,0.092,-0.09,0,0,,,,,,,,,,,,,0.124,0.03,0,0.054,,,,
54794,20100924,-70.93,43.17,0.153,0.06,0.03,0.125,0.092,-0.11,0,0,,,,,,,,,,,,,0.123,-0.01,0,0.03,,,,
54794,20100925,-70.93,43.17,0.142,-0.07,0.113,0,0.087,-0.18,0,0,,,,,,,,,,,,,0.115,-0.11,0.018,0,,,,
54794,20100926,-70.93,43.17,0.136,-0.14,0.113,0,0.082,-0.25,0.119,0,,,,,,,,,,,,,0.109,-0.18,0.024,0,,,,
54794,20100927,-70.93,43.17,0.131,-0.2,0.113,0,0.076,-0.32,0.262,0,,,,,,,,,,,,,0.104,-0.26,0.113,0,,,,
54794,20100928,-70.93,43.17,0.128,-0.25,0.113,0,0.071,-0.39,0.405,0,,,,,,,,,,,,,0.099,-0.32,0.256,0,,,,
54794,20100929,-70.93,43.17,0.132,-0.24,0.113,0,0.069,-0.44,0.494,0,,,,,,,,,,,,,0.1,-0.35,0.315,0,,,,
54794,20100930,-70.93,43.17,0.138,-0.21,0.113,0,0.07,-0.45,0.5,0,,,,,,,,,,,,,0.104,-0.34,0.315,0,,,,
54794,20101001,-70.93,43.17,0.146,-0.17,0.083,0,0.072,-0.46,0.548,0,,,,,,,,,,,,,0.109,-0.33,0.315,0,,,,
54794,20101002,-70.93,43.17,0.168,0,0,0.107,0.082,-0.38,0.571,0.071,,,,,,,,,,,,,0.125,-0.21,0.298,0.107,,,,
54794,20101003,-70.93,43.17,0.184,0.1,0,0.25,0.095,-0.28,0.452,0.119,,,,,,,,,,,,,0.139,-0.1,0.292,0.214,,,,
54794,20101004,-70.93,43.17,0.195,0.18,0,0.25,0.106,-0.2,0.31,0.119,,,,,,,,,,,,,0.15,-0.01,0.202,0.214,,,,
54794,20101005,-70.93,43.17,0.205,0.24,0,0.25,0.115,-0.14,0.167,0.119,,,,,,,,,,,,,0.16,0.05,0.06,0.214,,,,
54794,20101006,-70.93,43.17,0.208,0.24,0,0.25,0.122,-0.1,0.077,0.119,,,,,,,,,,,,,0.165,0.08,0,0.214,,,,
54794,20101007,-70.93,43.17,0.222,0.35,0,0.369,0.133,0,0.071,0.214,,,,,,,,,,,,,0.178,0.19,0,0.321,,,,
54794,20101008,-70.93,43.17,0.237,0.46,0,0.512,0.146,0.13,0.024,0.357,,,,,,,,,,,,,0.192,0.32,0,0.464,,,,
54794,20101009,-70.93,43.17,0.232,0.4,0,0.548,0.149,0.13,0,0.321,,,,,,,,,,,,,0.191,0.3,0,0.458,,,,
54794,20101010,-70.93,43.17,0.228,0.35,0,0.417,0.148,0.1,0,0.274,,,,,,,,,,,,,0.188,0.26,0,0.351,,,,
54794,20101011,-70.93,43.17,0.226,0.31,0,0.417,0.148,0.08,0,0.274,,,,,,,,,,,,,0.187,0.23,0,0.351,,,,
54794,20101012,-70.93,43.17,0.226,0.29,0,0.417,0.148,0.06,0,0.274,,,,,,,,,,,,,0.187,0.22,0,0.351,,,,
54794,20101013,-70.93,43.17,0.227,0.28,0,0.417,0.149,0.05,0.083,0.274,,,,,,,,,,,,,0.188,0.2,0,0.351,,,,
54794,20101014,-70.93,43.17,0.216,0.14,0,0.298,0.141,-0.08,0.226,0.179,,,,,,,,,,,,,0.178,0.06,0.024,0.244,,,,
54794,20101015,-70.93,43.17,0.208,0.04,0,0.185,0.134,-0.19,0.345,0.054,,,,,,,,,,,,,0.171,-0.05,0.131,0.125,,,,
54794,20101016,-70.93,43.17,0.22,0.18,0,0.185,0.145,-0.06,0.345,0.161,,,,,,,,,,,,,0.182,0.09,0.131,0.167,,,,
54794,20101017,-70.93,43.17,0.23,0.27,0,0.315,0.153,0.03,0.345,0.304,,,,,,,,,,,,,0.192,0.18,0.131,0.31,,,,
54794,20101018,-70.93,43.17,0.239,0.35,0,0.458,0.161,0.11,0.345,0.369,,,,,,,,,,,,,0.2,0.26,0.131,0.452,,,,
54794,20101019,-70.93,43.17,0.247,0.42,0,0.601,0.168,0.18,0.345,0.369,,,,,,,,,,,,,0.207,0.32,0.131,0.464,,,,
54794,20101020,-70.93,43.17,0.254,0.48,0,0.625,0.174,0.23,0.262,0.369,,,,,,,,,,,,,0.214,0.38,0.131,0.464,,,,
54794,20101021,-70.93,43.17,0.261,0.53,0,0.625,0.18,0.28,0.119,0.369,,,,,,,,,,,,,0.22,0.43,0.107,0.464,,,,
54794,20101022,-70.93,43.17,0.265,0.56,0,0.595,0.184,0.3,0,0.351,,,,,,,,,,,,,0.225,0.45,0,0.44,,,,
54794,20101023,-70.93,43.17,0.254,0.39,0,0.455,0.173,0.11,0,0.21,,,,,,,,,,,,,0.213,0.26,0,0.299,,,,
54794,20101024,-70.93,43.17,0.247,0.28,0,0.311,0.165,-0.04,0.096,0.066,,,,,,,,,,,,,0.206,0.14,0,0.156,,,,
54794,20101025,-70.93,43.17,0.242,0.2,0,0.168,0.159,-0.16,0.24,0,,,,,,,,,,,,,0.201,0.04,0,0.012,,,,
54794,20101026,-70.93,43.17,0.239,0.14,0,0.024,0.155,-0.25,0.383,0,,,,,,,,,,,,,0.197,-0.03,0,0,,,,
54794,20101027,-70.93,43.17,0.237,0.1,0,0,0.152,-0.33,0.527,0,,,,,,,,,,,,,0.194,-0.08,0,0,,,,
54794,20101028,-70.93,43.17,0.242,0.15,0,0.084,0.154,-0.33,0.545,0,,,,,,,,,,,,,0.198,-0.06,0,0.072,,,,
54794,20101029,-70.93,43.17,0.246,0.18,0,0.204,0.157,-0.31,0.545,0,,,,,,,,,,,,,0.201,-0.03,0,0.084,,,,
54794,20101030,-70.93,43.17,0.248,0.19,0,0.202,0.159,-0.3,0.542,0,,,,,,,,,,,,,0.204,-0.01,0,0.083,,,,
54794,20101031,-70.93,43.17,0.25,0.2,0,0.202,0.162,-0.3,0.446,0,,,,,,,,,,,,,0.206,-0.01,0,0.083,,,,
54794,20101101,-70.93,43.17,0.252,0.19,0,0.202,0.163,-0.32,0.435,0,,,,,,,,,,,,,0.207,-0.02,0,0.083,,,,
54794,20101102,-70.93,43.17,0.252,0.17,0,0.202,0.164,-0.34,0.435,0,,,,,,,,,,,,,0.208,-0.05,0.071,0.083,,,,
54794,20101103,-70.93,43.17,0.252,0.14,0,0.202,0.164,-0.39,0.435,0,,,,,,,,,,,,,0.208,-0.09,0.214,0.083,,,,
54794,20101104,-70.93,43.17,0.246,0.04,0,0.119,0.159,-0.5,0.56,0,,,,,,,,,,,,,0.202,-0.2,0.357,0.012,,,,
54794,20101105,-70.93,43.17,0.251,0.1,0,0.113,0.163,-0.46,0.595,0.101,,,,,,,,,,,,,0.207,-0.14,0.387,0.107,,,,
54794,20101106,-70.93,43.17,0.259,0.21,0,0.256,0.17,-0.36,0.595,0.208,,,,,,,,,,,,,0.215,-0.03,0.387,0.25,,,,
54794,20101107,-70.93,43.17,0.266,0.29,0,0.399,0.176,-0.28,0.595,0.208,,,,,,,,,,,,,0.221,0.04,0.387,0.393,,,,
54794,20101108,-70.93,43.17,0.274,0.4,0,0.542,0.183,-0.16,0.464,0.238,,,,,,,,,,,,,0.229,0.16,0.387,0.494,,,,
54794,20101109,-70.93,43.17,0.286,0.57,0,0.685,0.194,0.03,0.321,0.375,,,,,,,,,,,,,0.24,0.33,0.315,0.637,,,,
54794,20101110,-70.93,43.17,0.297,0.7,0,0.827,0.204,0.19,0.179,0.405,,,,,,,,,,,,,0.25,0.49,0.173,0.78,,,,
54794,20101111,-70.93,43.17,0.307,0.83,0,0.97,0.213,0.35,0.036,0.417,,,,,,,,,,,,,0.26,0.64,0.03,0.899,,,,
54794,20101112,-70.93,43.17,0.303,0.77,0,1,0.211,0.3,0,0.315,,,,,,,,,,,,,0.257,0.58,0,0.792,,,,
54794,20101113,-70.93,43.17,0.298,0.67,0,0.893,0.207,0.19,0.012,0.208,,,,,,,,,,,,,0.252,0.47,0,0.649,,,,
54794,20101114,-70.93,43.17,0.294,0.6,0,0.75,0.203,0.09,0.155,0.208,,,,,,,,,,,,,0.249,0.39,0,0.506,,,,
54794,20101115,-70.93,43.17,0.289,0.5,0,0.607,0.199,-0.03,0.298,0.179,,,,,,,,,,,,,0.244,0.28,0,0.405,,,,
54794,20101116,-70.93,43.17,0.28,0.35,0,0.464,0.192,-0.21,0.44,0.042,,,,,,,,,,,,,0.236,0.13,0,0.262,,,,
54794,20101117,-70.93,43.17,0.276,0.26,0,0.339,0.188,-0.31,0.571,0.024,,,,,,,,,,,,,0.232,0.04,0,0.131,,,,
54794,20101118,-70.93,43.17,0.279,0.3,0,0.339,0.191,-0.26,0.571,0.083,,,,,,,,,,,,,0.235,0.1,0,0.155,,,,
54794,20101119,-70.93,43.17,0.279,0.29,0,0.292,0.191,-0.27,0.571,0.083,,,,,,,,,,,,,0.235,0.1,0,0.173,,,,
54794,20101120,-70.93,43.17,0.281,0.31,0,0.399,0.191,-0.28,0.607,0.083,,,,,,,,,,,,,0.236,0.11,0,0.173,,,,
54794,20101121,-70.93,43.17,0.283,0.33,0,0.494,0.191,-0.29,0.607,0.083,,,,,,,,,,,,,0.237,0.12,0,0.173,,,,
54794,20101122,-70.93,43.17,0.286,0.36,0,0.494,0.191,-0.31,0.607,0.083,,,,,,,,,,,,,0.239,0.13,0,0.173,,,,
54794,20101123,-70.93,43.17,0.289,0.4,0,0.494,0.191,-0.33,0.607,0.083,,,,,,,,,,,,,0.24,0.14,0,0.173,,,,
54794,20101124,-70.93,43.17,0.291,0.42,0,0.554,0.19,-0.38,0.619,0.071,,,,,,,,,,,,,0.241,0.13,0,0.161,,,,
54794,20101125,-70.93,43.17,0.286,0.32,0,0.417,0.183,-0.6,0.762,0,,,,,,,,,,,,,0.234,-0.04,0,0.018,,,,
54794,20101126,-70.93,43.17,0.285,0.29,0,0.333,0.178,-0.73,0.905,0,,,,,,,,,,,,,0.232,-0.13,0.107,0,,,,
54794,20101127,-70.93,43.17,0.289,0.35,0,0.291,0.18,-0.7,0.911,0.032,,,,,,,,,,,,,0.235,-0.07,0.114,0.089,,,,
54794,20101128,-70.93,43.17,,,,,,,,,,,,,,,,,,,,,,,,,,,,
54794,20101129,-70.93,43.17,,,,,,,,,,,,,,,,,,,,,,,,,,,,
54794,20101130,-70.93,43.17,,,,,,,,,,,,,,,,,,,,,,,,,,,,
54794,20101201,-70.93,43.17,,,,,,,,,,,,,,,,,,,,,,,,,,,,
54794,20101202,-70.93,43.17,,,,,,,,,,,,,,,,,,,,,,,,,,,,
54794,20101203,-70.93,43.17,,,,,,,,,,,,,,,,,,,,,,,,,,,,
54794,20101204,-70.93,43.17,,,,,,,,,,,,,,,,,,,,,,,,,,,,
54794,20101205,-70.93,43.17,0.312,0.65,0,0.921,0.196,-0.44,0.743,0.071,,,,,,,,,,,,,0.254,0.27,0.007,0.264,,,,
54794,20101206,-70.93,43.17,0.311,0.62,0,0.933,0.195,-0.47,0.78,0.061,,,,,,,,,,,,,0.253,0.23,0.006,0.226,,,,
54794,20101207,-70.93,43.17,0.31,0.61,0,0.94,0.196,-0.47,0.786,0.06,,,,,,,,,,,,,0.253,0.22,0,0.22,,,,
54794,20101208,-70.93,43.17,0.309,0.58,0,0.827,0.195,-0.5,0.786,0.06,,,,,,,,,,,,,0.252,0.19,0,0.22,,,,
54794,20101209,-70.93,43.17,0.301,0.43,0,0.685,0.19,-0.68,0.863,0,,,,,,,,,,,,,0.245,0.01,0.101,0.137,,,,
54794,20101210,-70.93,43.17,0.297,0.36,0,0.641,0.185,-0.86,1,0,,,,,,,,,,,,,0.242,-0.1,0.109,0,,,,
54794,20101211,-70.93,43.17,,,,,0.181,-1.03,1,0,,,,,,,,,,,,,,,,,,,,
54794,20101212,-70.93,43.17,,,,,0.177,-1.19,1,0,,,,,,,,,,,,,,,,,,,,
54794,20101213,-70.93,43.17,,,,,0.186,-0.92,0.898,0.09,,,,,,,,,,,,,,,,,,,,
54794,20101214,-70.93,43.17,,,,,0.192,-0.74,0.754,0.168,,,,,,,,,,,,,,,,,,,,
54794,20101215,-70.93,43.17,,,,,0.197,-0.61,0.635,0.168,,,,,,,,,,,,,,,,,,,,
54794,20101216,-70.93,43.17,,,,,0.199,-0.54,0.635,0.168,,,,,,,,,,,,,,,,,,,,
54794,20101217,-70.93,43.17,,,,,0.201,-0.51,0.635,0.168,,,,,,,,,,,,,,,,,,,,
54794,20101218,-70.93,43.17,,,,,0.204,-0.45,0.63,0.17,,,,,,,,,,,,,,,,,,,,
54794,20101219,-70.93,43.17,,,,,0.21,-0.23,0.567,0.199,,,,,,,,,,,,,,,,,,,,
54794,20101220,-70.93,43.17,,,,,,,,,,,,,,,,,,,,,,,,,,,,
54794,20101221,-70.93,43.17,,,,,,,,,,,,,,,,,,,,,,,,,,,,
54794,20101222,-70.93,43.17,,,,,,,,,,,,,,,,,,,,,,,,,,,,
54794,20101223,-70.93,43.17,,,,,,,,,,,,,,,,,,,,,,,,,,,,
54794,20101224,-70.93,43.17,,,,,,,,,,,,,,,,,,,,,,,,,,,,
54794,20101225,-70.93,43.17,,,,,,,,,,,,,,,,,,,,,,,,,,,,
54794,20101226,-70.93,43.17,,,,,,,,,,,,,,,,,,,,,,,,,,,,
54794,20101227,-70.93,43.17,,,,,,,,,,,,,,,,,,,,,,,,,,,,
54794,20101228,-70.93,43.17,,,,,,,,,,,,,,,,,,,,,,,,,,,,
54794,20101229,-70.93,43.17,,,,,,,,,,,,,,,,,,,,,,,,,,,,
54794,20101230,-70.93,43.17,,,,,,,,,,,,,,,,,,,,,,,,,,,,
54794,20101231,-70.93,43.17,,,,,,,,,,,,,,,,,,,,,,,,,,,,
54794,20110101,-70.93,43.17,,,,,,,,,,,,,,,,,,,,,,,,,,,,
54794,20110102,-70.93,43.17,,,,,,,,,,,,,,,,,,,,,,,,,,,,
54794,20110103,-70.93,43.17,,,,,,,,,,,,,,,,,,,,,,,,,,,,
54794,20110104,-70.93,43.17,,,,,,,,,,,,,,,,,,,,,,,,,,,,
54794,20110105,-70.93,43.17,,,,,,,,,,,,,,,,,,,,,,,,,,,,
54794,20110106,-70.93,43.17,,,,,0.184,-1.03,0.818,0,,,,,,,,,,,,,,,,,,,,
54794,20110107,-70.93,43.17,,,,,0.185,-0.99,0.839,0,,,,,,,,,,,,,,,,,,,,
54794,20110108,-70.93,43.17,,,,,0.188,-0.9,0.833,0,,,,,,,,,,,,,,,,,,,,
54794,20110109,-70.93,43.17,,,,,0.192,-0.78,0.792,0,,,,,,,,,,,,,,,,,,,,
54794,20110110,-70.93,43.17,,,,,0.189,-0.87,0.833,0,,,,,,,,,,,,,,,,,,,,
54794,20110111,-70.93,43.17,,,,,0.187,-0.92,0.804,0,,,,,,,,,,,,,,,,,,,,
54794,20110112,-70.93,43.17,,,,,0.188,-0.89,0.78,0,,,,,,,,,,,,,,,,,,,,
54794,20110113,-70.93,43.17,,,,,0.189,-0.81,0.756,0,,,,,,,,,,,,,,,,,,,,
54794,20110114,-70.93,43.17,,,,,0.192,-0.72,0.655,0,,,,,,,,,,,,,,,,,,,,
54794,20110115,-70.93,43.17,,,,,0.194,-0.64,0.583,0,,,,,,,,,,,,,,,,,,,,
54794,20110116,-70.93,43.17,,,,,0.194,-0.6,0.536,0,,,,,,,,,,,,,,,,,,,,
54794,20110117,-70.93,43.17,,,,,0.194,-0.59,0.554,0,,,,,,,,,,,,,,,,,,,,
54794,20110118,-70.93,43.17,,,,,0.191,-0.65,0.637,0,,,,,,,,,,,,,,,,,,,,
54794,20110119,-70.93,43.17,,,,,0.186,-0.76,0.661,0,,,,,,,,,,,,,,,,,,,,
54794,20110120,-70.93,43.17,0.302,,,,0.185,-0.79,0.613,0,,,,,,,,,,,,,0.242,,,,,,,
54794,20110121,-70.93,43.17,0.307,,,,0.185,-0.77,0.589,0,,,,,,,,,,,,,0.245,,,,,,,
54794,20110122,-70.93,43.17,0.311,,,,0.185,-0.73,0.56,0,,,,,,,,,,,,,0.248,,,,,,,
54794,20110123,-70.93,43.17,0.316,,,,0.185,-0.71,0.536,0,,,,,,,,,,,,,0.25,,,,,,,
54794,20110124,-70.93,43.17,0.317,,,,0.187,-0.64,0.5,0,,,,,,,,,,,,,0.252,,,,,,,
54794,20110125,-70.93,43.17,0.315,,,,0.19,-0.54,0.494,0,,,,,,,,,,,,,0.253,,,,,,,
54794,20110126,-70.93,43.17,0.314,,,,0.192,-0.45,0.494,0,,,,,,,,,,,,,0.253,,,,,,,
54794,20110127,-70.93,43.17,0.304,,,,0.192,-0.45,0.565,0,,,,,,,,,,,,,0.248,,,,,,,
54794,20110128,-70.93,43.17,0.296,,,,0.19,-0.48,0.69,0,,,,,,,,,,,,,0.243,,,,,,,
54794,20110129,-70.93,43.17,0.289,,,,0.189,-0.49,0.804,0,,,,,,,,,,,,,0.239,,,,,,,
54794,20110130,-70.93,43.17,0.282,,,,0.188,-0.51,0.893,0,,,,,,,,,,,,,0.235,,,,,,,
54794,20110131,-70.93,43.17,0.279,,,,0.187,-0.51,0.827,0,,,,,,,,,,,,,0.233,,,,,,,
54794,20110201,-70.93,43.17,0.278,,,,0.186,-0.5,0.69,0,,,,,,,,,,,,,0.232,,,,,,,
54794,20110202,-70.93,43.17,0.278,,,,0.186,-0.49,0.548,0,,,,,,,,,,,,,0.232,,,,,,,
54794,20110203,-70.93,43.17,0.277,,,,0.185,-0.47,0.405,0,,,,,,,,,,,,,0.231,,,,,,,
54794,20110204,-70.93,43.17,0.277,,,,0.185,-0.45,0.274,0,,,,,,,,,,,,,0.231,,,,,,,
54794,20110205,-70.93,43.17,0.277,,,,0.185,-0.44,0.131,0,,,,,,,,,,,,,0.231,,,,,,,
54794,20110206,-70.93,43.17,0.277,,,,0.185,-0.43,0.018,0,,,,,,,,,,,,,0.231,,,,,,,
54794,20110207,-70.93,43.17,0.277,,,,0.185,-0.42,0.012,0,,,,,,,,,,,,,0.231,,,,,,,
54794,20110208,-70.93,43.17,0.278,,,,0.186,-0.41,0.012,0,,,,,,,,,,,,,0.232,,,,,,,
54794,20110209,-70.93,43.17,0.279,,,,0.187,-0.4,0.012,0,,,,,,,,,,,,,0.233,,,,,,,
54794,20110210,-70.93,43.17,0.281,,,,0.188,-0.38,0.012,0,,,,,,,,,,,,,0.235,,,,,,,
54794,20110211,-70.93,43.17,0.283,,,,0.19,-0.37,0,0,,,,,,,,,,,,,0.236,,,,,,,
54794,20110212,-70.93,43.17,0.283,,,,0.19,-0.37,0,0,,,,,,,,,,,,,0.237,,,,,,,
54794,20110213,-70.93,43.17,0.284,,,,0.19,-0.39,0.036,0,,,,,,,,,,,,,0.237,,,,,,,